| time (UTC) | temp F | wind direction | speed MPH | gust MPH | rain 1hr in | rain 24hr in | rain mn in | humidity % | barometer mb |
| 20260502212517 | 93 | 155 | 3.0 | 8.0 | 0.00 | 0.00 | 0.00 | 12 | 1011.9 |
| 20260502211517 | 92 | 137 | 1.0 | 9.0 | 0.00 | 0.00 | 0.00 | 12 | 1012.0 |
| 20260502210517 | 92 | 128 | 4.0 | 10.0 | 0.00 | 0.00 | 0.00 | 15 | 1012.1 |
| 20260502205516 | 91 | 129 | 3.0 | 11.0 | 0.00 | 0.00 | 0.00 | 16 | 1012.3 |
| 20260502204517 | 91 | 130 | 2.0 | 7.0 | 0.00 | 0.00 | 0.00 | 17 | 1012.4 |
| 20260502203518 | 92 | 97 | 4.0 | 9.0 | 0.00 | 0.00 | 0.00 | 17 | 1012.6 |
| 20260502202516 | 91 | 70 | 1.0 | 11.0 | 0.00 | 0.00 | 0.00 | 18 | 1012.7 |
| 20260502201517 | 90 | 126 | 4.0 | 10.0 | 0.00 | 0.00 | 0.00 | 19 | 1012.8 |
| 20260502200521 | 90 | 131 | 3.0 | 10.0 | 0.00 | 0.00 | 0.00 | 19 | 1013.0 |
| 20260502195516 | 90 | 121 | 4.0 | 10.0 | 0.00 | 0.00 | 0.00 | 19 | 1013.0 |
| 20260502194520 | 89 | 133 | 3.0 | 10.0 | 0.00 | 0.00 | 0.00 | 20 | 1013.2 |
| 20260502193516 | 89 | 107 | 4.0 | 11.0 | 0.00 | 0.00 | 0.00 | 20 | 1013.3 |
| 20260502192522 | 89 | 132 | 2.0 | 10.0 | 0.00 | 0.00 | 0.00 | 20 | 1013.4 |
| 20260502191517 | 89 | 141 | 4.0 | 10.0 | 0.00 | 0.00 | 0.00 | 20 | 1013.6 |
| 20260502190516 | 89 | 145 | 2.0 | 6.0 | 0.00 | 0.00 | 0.00 | 21 | 1013.8 |
| 20260502185516 | 88 | 129 | 5.0 | 9.0 | 0.00 | 0.00 | 0.00 | 22 | 1014.0 |
| 20260502184516 | 87 | 144 | 3.0 | 16.0 | 0.00 | 0.00 | 0.00 | 23 | 1014.1 |
| 20260502183517 | 87 | 127 | 6.0 | 14.0 | 0.00 | 0.00 | 0.00 | 23 | 1014.3 |
| 20260502182517 | 87 | 121 | 4.0 | 11.0 | 0.00 | 0.00 | 0.00 | 23 | 1014.5 |
| 20260502181541 | 86 | 109 | 4.0 | 13.0 | 0.00 | 0.00 | 0.00 | 24 | 1014.7 |
| 20260502180517 | 86 | 93 | 5.0 | 16.0 | 0.00 | 0.00 | 0.00 | 24 | 1014.8 |
| 20260502170516 | 83 | 123 | 7.0 | 16.0 | 0.00 | 0.00 | 0.00 | 29 | 1015.1 |
| 20260502163517 | 82 | 96 | 7.0 | 16.0 | 0.00 | 0.00 | 0.00 | 31 | 1014.9 |
| 20260502162517 | 81 | 119 | 7.0 | 14.0 | 0.00 | 0.00 | 0.00 | 31 | 1014.9 |
| 20260502161536 | 81 | 110 | 7.0 | 15.0 | 0.00 | 0.00 | 0.00 | 31 | 1014.9 |
| 20260502160517 | 81 | 113 | 7.0 | 17.0 | 0.00 | 0.00 | 0.00 | 33 | 1014.9 |
| 20260502151536 | 78 | 113 | 8.0 | 14.0 | 0.00 | 0.00 | 0.00 | 34 | 1014.5 |
| 20260502150517 | 78 | 126 | 8.0 | 14.0 | 0.00 | 0.00 | 0.00 | 35 | 1014.4 |
| 20260502130516 | 70 | 125 | 0.0 | 1.0 | 0.00 | 0.00 | 0.00 | 44 | 1013.1 |
| 20260502123516 | 65 | 91 | 1.0 | 6.0 | 0.00 | 0.00 | 0.00 | 44 | 1012.5 |
| 20260502122516 | 65 | 0.0 | 0.0 | 0.00 | 0.00 | 0.00 | 42 | 1012.4 | |
| 20260502121516 | 65 | 134 | 0.0 | 1.0 | 0.00 | 0.00 | 0.00 | 41 | 1012.3 |
| 20260502120515 | 65 | 0.0 | 0.0 | 0.00 | 0.00 | 0.00 | 40 | 1012.2 | |
| 20260502115517 | 65 | 0.0 | 0.0 | 0.00 | 0.00 | 0.00 | 39 | 1012.2 | |
| 20260502114516 | 65 | 0.0 | 0.0 | 0.00 | 0.00 | 0.00 | 38 | 1012.2 | |
| 20260502113516 | 65 | 0.0 | 0.0 | 0.00 | 0.00 | 0.00 | 37 | 1012.1 | |
| 20260502112515 | 65 | 0.0 | 1.0 | 0.00 | 0.00 | 0.00 | 37 | 1012.2 | |
| 20260502111535 | 65 | 0.0 | 0.0 | 0.00 | 0.00 | 0.00 | 38 | 1012.2 | |
| 20260502110517 | 65 | 0.0 | 0.0 | 0.00 | 0.00 | 0.00 | 38 | 1012.1 | |
| 20260502105516 | 66 | 0.0 | 1.0 | 0.00 | 0.00 | 0.00 | 36 | 1012.1 | |
| 20260502104516 | 67 | 133 | 0.0 | 1.0 | 0.00 | 0.00 | 0.00 | 35 | 1012.1 |
| 20260502103516 | 67 | 0.0 | 0.0 | 0.00 | 0.00 | 0.00 | 35 | 1011.9 | |
| 20260502102517 | 68 | 170 | 0.0 | 3.0 | 0.00 | 0.00 | 0.00 | 34 | 1011.9 |
| 20260502101515 | 70 | 160 | 1.0 | 3.0 | 0.00 | 0.00 | 0.00 | 32 | 1011.9 |
| 20260502100516 | 71 | 128 | 0.0 | 3.0 | 0.00 | 0.00 | 0.00 | 28 | 1011.9 |
| 20260502091515 | 70 | 131 | 1.0 | 5.0 | 0.00 | 0.00 | 0.00 | 30 | 1011.8 |
| 20260502090556 | 70 | 133 | 1.0 | 4.0 | 0.00 | 0.00 | 0.00 | 30 | 1011.8 |
| 20260502070516 | 68 | 136 | 0.0 | 1.0 | 0.00 | 0.00 | 0.00 | 34 | 1011.4 |
| 20260502065515 | 69 | 0.0 | 1.0 | 0.00 | 0.00 | 0.00 | 34 | 1011.4 | |
| 20260502064515 | 70 | 140 | 0.0 | 2.0 | 0.00 | 0.00 | 0.00 | 32 | 1011.4 |
| 20260502063537 | 70 | 131 | 0.0 | 2.0 | 0.00 | 0.00 | 0.00 | 33 | 1011.4 |
| 20260502062515 | 70 | 135 | 0.0 | 2.0 | 0.00 | 0.00 | 0.00 | 32 | 1011.3 |
| 20260502061536 | 71 | 128 | 1.0 | 2.0 | 0.00 | 0.00 | 0.00 | 31 | 1011.2 |
| 20260502060515 | 71 | 0.0 | 1.0 | 0.00 | 0.00 | 0.00 | 31 | 1011.2 | |
| 20260502055516 | 72 | 0.0 | 1.0 | 0.00 | 0.00 | 0.00 | 32 | 1011.1 | |
| 20260502054515 | 72 | 128 | 0.0 | 1.0 | 0.00 | 0.00 | 0.00 | 32 | 1011.0 |
| 20260502053515 | 72 | 131 | 1.0 | 5.0 | 0.00 | 0.00 | 0.00 | 33 | 1011.0 |
| 20260502052515 | 71 | 0.0 | 0.0 | 0.00 | 0.00 | 0.00 | 33 | 1010.9 | |
| 20260502051556 | 72 | 0.0 | 0.0 | 0.00 | 0.00 | 0.00 | 34 | 1010.8 | |
| 20260502050515 | 73 | 0.0 | 0.0 | 0.00 | 0.00 | 0.00 | 31 | 1010.7 | |
| 20260502045537 | 74 | 0.0 | 0.0 | 0.00 | 0.00 | 0.00 | 29 | 1010.7 | |
| 20260502044516 | 74 | 0.0 | 0.0 | 0.00 | 0.00 | 0.00 | 29 | 1010.7 | |
| 20260502043538 | 75 | 0.0 | 0.0 | 0.00 | 0.00 | 0.00 | 28 | 1010.6 | |
| 20260502042517 | 75 | 0.0 | 0.0 | 0.00 | 0.00 | 0.00 | 28 | 1010.5 | |
| 20260502041517 | 76 | 0.0 | 0.0 | 0.00 | 0.00 | 0.00 | 27 | 1010.4 | |
| 20260502040537 | 77 | 0.0 | 1.0 | 0.00 | 0.00 | 0.00 | 26 | 1010.3 | |
| 20260502035522 | 77 | 262 | 0.0 | 1.0 | 0.00 | 0.00 | 0.00 | 26 | 1010.2 |
| 20260502034516 | 78 | 0.0 | 0.0 | 0.00 | 0.00 | 0.00 | 26 | 1010.1 | |
| 20260502033557 | 80 | 0.0 | 0.0 | 0.00 | 0.00 | 0.00 | 24 | 1009.9 | |
| 20260502032517 | 81 | 0.0 | 0.0 | 0.00 | 0.00 | 0.00 | 23 | 1009.9 | |
| 20260502031517 | 81 | 0.0 | 0.0 | 0.00 | 0.00 | 0.00 | 23 | 1009.7 | |
| 20260502030518 | 82 | 261 | 0.0 | 1.0 | 0.00 | 0.00 | 0.00 | 23 | 1009.7 |
| 20260502025522 | 82 | 311 | 0.0 | 2.0 | 0.00 | 0.00 | 0.00 | 22 | 1009.5 |
| 20260502024521 | 83 | 272 | 0.0 | 3.0 | 0.00 | 0.00 | 0.00 | 22 | 1009.4 |
| 20260502023517 | 83 | 275 | 1.0 | 3.0 | 0.00 | 0.00 | 0.00 | 22 | 1009.2 |
| 20260502022522 | 84 | 281 | 1.0 | 4.0 | 0.00 | 0.00 | 0.00 | 21 | 1009.1 |
| 20260502021518 | 84 | 287 | 0.0 | 5.0 | 0.00 | 0.00 | 0.00 | 21 | 1008.9 |
| 20260502020516 | 85 | 280 | 2.0 | 5.0 | 0.00 | 0.00 | 0.00 | 20 | 1008.9 |
| 20260502015537 | 85 | 286 | 3.0 | 6.0 | 0.00 | 0.00 | 0.00 | 20 | 1008.8 |
| 20260502014517 | 86 | 300 | 2.0 | 8.0 | 0.00 | 0.00 | 0.00 | 21 | 1008.8 |
| 20260502013516 | 86 | 289 | 3.0 | 8.0 | 0.00 | 0.00 | 0.00 | 20 | 1008.7 |
| 20260502012517 | 87 | 285 | 3.0 | 7.0 | 0.00 | 0.00 | 0.00 | 21 | 1008.7 |
| 20260502011517 | 87 | 284 | 3.0 | 6.0 | 0.00 | 0.00 | 0.00 | 21 | 1008.8 |
| 20260502010517 | 87 | 272 | 2.0 | 7.0 | 0.00 | 0.00 | 0.00 | 21 | 1008.7 |
| 20260502010015 | 87 | 307 | 2.0 | 8.0 | 0.00 | 0.00 | 0.00 | 21 | 1008.6 |
| 20260502005015 | 87 | 282 | 4.0 | 7.0 | 0.00 | 0.00 | 0.00 | 21 | 1008.6 |
| 20260502004016 | 87 | 287 | 2.0 | 8.0 | 0.00 | 0.00 | 0.00 | 20 | 1008.6 |
| 20260502003016 | 88 | 280 | 4.0 | 7.0 | 0.00 | 0.00 | 0.00 | 19 | 1008.6 |
| 20260502002018 | 88 | 325 | 2.0 | 8.0 | 0.00 | 0.00 | 0.00 | 19 | 1008.6 |
| 20260502001016 | 87 | 303 | 4.0 | 10.0 | 0.00 | 0.00 | 0.00 | 19 | 1008.6 |
| 20260502000020 | 87 | 315 | 3.0 | 9.0 | 0.00 | 0.00 | 0.00 | 19 | 1008.6 |
| 20260501235015 | 88 | 296 | 5.0 | 10.0 | 0.00 | 0.00 | 0.00 | 19 | 1008.7 |
| 20260501234036 | 89 | 289 | 3.0 | 8.0 | 0.00 | 0.00 | 0.00 | 20 | 1008.8 |
| 20260501233036 | 88 | 284 | 2.0 | 9.0 | 0.00 | 0.00 | 0.00 | 20 | 1008.8 |
| 20260501232015 | 88 | 312 | 3.0 | 11.0 | 0.00 | 0.00 | 0.00 | 20 | 1008.8 |
| 20260501231055 | 88 | 317 | 5.0 | 9.0 | 0.00 | 0.00 | 0.00 | 19 | 1008.9 |
| 20260501230056 | 88 | 253 | 2.0 | 7.0 | 0.00 | 0.00 | 0.00 | 19 | 1008.9 |
| 20260501225016 | 89 | 287 | 4.0 | 10.0 | 0.00 | 0.00 | 0.00 | 18 | 1008.9 |
| 20260501224015 | 89 | 185 | 3.0 | 7.0 | 0.00 | 0.00 | 0.00 | 19 | 1009.1 |
| 20260501223020 | 88 | 301 | 2.0 | 8.0 | 0.00 | 0.00 | 0.00 | 19 | 1009.2 |
| 20260501222015 | 89 | 208 | 3.0 | 10.0 | 0.00 | 0.00 | 0.00 | 19 | 1009.4 |
| 20260501221015 | 87 | 321 | 2.0 | 7.0 | 0.00 | 0.00 | 0.00 | 20 | 1009.3 |
| 20260501220016 | 89 | 289 | 2.0 | 7.0 | 0.00 | 0.00 | 0.00 | 19 | 1009.6 |
| 20260501215035 | 89 | 261 | 1.0 | 7.0 | 0.00 | 0.00 | 0.00 | 19 | 1009.7 |
| 20260501214015 | 89 | 141 | 1.0 | 6.0 | 0.00 | 0.00 | 0.00 | 19 | 1009.9 |
| 20260501213015 | 89 | 197 | 2.0 | 9.0 | 0.00 | 0.00 | 0.00 | 20 | 1010.1 |